Date,TemperatureHighF,TemperatureAvgF,TemperatureLowF,DewpointHighF,DewpointAvgF,DewpointLowF,HumidityHigh,HumidityAvg,HumidityLow,PressureMaxIn,PressureMinIn,WindSpeedMaxMPH,WindSpeedAvgMPH,GustSpeedMaxMPH,PrecipitationSumIn
2013-4-1,88,73,60,69,61,57,96,71,41,29.92,29.92,17,4,26,0.00
2013-4-2,94,73,58,66,58,43,99,68,24,29.92,29.92,12,3,17,0.00
2013-4-3,88,73,61,69,64,58,99,76,43,29.92,29.92,15,4,21,0.53
2013-4-4,72,70,67,71,68,63,99,93,79,29.92,29.92,19,5,27,0.27
2013-4-5,79,70,61,70,63,53,99,81,46,29.92,29.92,17,5,23,0.01
2013-4-6,80,66,54,61,56,53,97,73,44,29.92,29.92,14,6,24,0.00
2013-4-7,84,71,58,66,59,53,99,71,39,29.92,29.92,14,4,17,0.00
2013-4-8,89,72,58,70,59,53,99,69,35,29.92,29.92,12,3,15,0.00
2013-4-9,86,72,58,70,61,57,99,73,44,29.92,29.92,15,4,23,0.00
2013-4-10,64,62,60,61,60,58,95,91,86,29.92,29.92,2,0,3,0.00
2013-4-20,79,70,63,66,62,58,89,77,62,29.92,29.92,14,6,17,0.00
2013-4-21,84,70,62,74,66,58,98,87,64,29.92,29.92,13,4,17,0.04
2013-4-22,83,72,68,71,68,65,99,89,58,29.92,29.92,17,4,28,0.13
2013-4-23,86,73,63,66,62,56,99,74,42,29.92,29.92,14,6,23,0.00
2013-4-24,95,74,57,66,61,56,99,70,32,29.92,29.92,11,3,18,0.00
2013-4-25,94,76,60,69,61,52,99,67,31,29.92,29.92,10,2,13,0.00
2013-4-26,93,76,61,73,63,57,99,68,36,29.92,29.92,15,3,20,0.00
2013-4-27,88,76,64,71,66,59,99,75,45,29.92,29.92,16,4,21,0.00
2013-4-28,90,76,63,68,62,54,97,69,34,29.92,29.92,17,5,24,0.00
2013-4-29,92,76,63,69,64,60,98,72,39,29.92,29.92,14,3,23,0.14
2013-4-30,69,68,67,69,68,66,99,99,97,29.92,29.92,11,1,16,0.24